Location: *
(47.6569°N, 7.4256°E)
Time: 02:35:59
(UTC+00:00)

Okean 2 Rocket - Pass Details

Date: 14 December 2019
Orbit: 618 x 640 km, 82.5° (Epoch: 17 January)

Event Time Altitude Azimuth Distance (km) Brightness Sun altitude
Rises 18:02:46 0° 347° (NNW) 2,938 6.6 -23.2°
Reaches altitude 10° 18:05:02 10° 343° (NNW) 2,028 5.8 -23.5°
Maximum altitude 18:09:27 57° 265° (W) 754 3.7 -24.3°
Drops below altitude 10° 18:13:50 10° 187° (S) 2,023 5.8 -25.0°
Sets 18:16:06 0° 184° (S) 2,929 6.7 -25.4°
